C/2006 S3 ( LONEOS )

Japanese version
Home page
Updated on July 9, 2016

---------------------------------------------------------------------

* Profile

Discovery Date September 19, 2006
Magnitude 19.0 mag
Discoverer Lowell Observatory Near-Earth Object Search

* Pictures

* Orbital Elements

Epoch 2012 Apr. 23.0 TT = JDT 2456040.5
T 2012 Apr. 16.32294 TT                                 MPCW
q   5.1311798            (2000.0)            P               Q
z  -0.0006918      Peri.  140.12892     -0.21555302     -0.96492938
 +/-0.0000000      Node    38.37038     -0.94614372     +0.24433584
e   1.0035497      Incl.  166.03273     -0.24155529     -0.09597543
From 5338 observations 2006 Aug. 29-2015 Dec. 19, mean residual 0".7.

* Finding Charts

* Magnitudes Graph

        m1 = 4.0 + 5 log d +  7.5 log r(t -  300)  [   ,300]  (             - 2013 Feb. 10)
        m1 = 2.2 + 5 log d + 10.0 log r(t -  300)  [300,   ]  (2013 Feb. 10 -             )

---------------------------------------------------------------------

The orbital elements are published on M.P.E.C. 2015-Y73.
The charts are made with StellaNavigator Ver.2.0 for Windows (AstroArts / ASCII).
The magnitudes graphs are made with Comet for Windows.

---------------------------------------------------------------------

Copyright(C) Seiichi Yoshida (comet@aerith.net). All rights reserved.